Location: Bijele Vode
(45.2833°N, 16.2000°E)
Time: 16:50:24
(UTC+00:00)

Cosmos 1943 - Pass Details

Date: 18 September 2020
Orbit: 833 x 850 km, 71.0° (Epoch: 20 October)

Event Time Altitude Azimuth Distance (km) Brightness Sun altitude
Rises 18:03:03 0° 332° (NNW) 3,400 7.0 -11.8°
Reaches altitude 10° 18:05:30 10° 330° (NNW) 2,464 6.3 -12.2°
Maximum altitude 18:11:07 70° 248° (WSW) 897 3.5 -13.2°
Drops below altitude 10° 18:16:43 10° 166° (SSE) 2,459 5.3 -14.1°
Enters shadow 18:19:00 - 164° (SSE) 3,324 6.0 -14.5°
